This is the latest recevied weather packets stored in our database for station/object CX5ACA-13. If no packets are shown the sender has not sent any weather packets the latest 10 day(s).
| Time | Temp. | Humidity | Pressure | Rain* | Wind** | Luminosity | Snow |
|---|---|---|---|---|---|---|---|
| 1777713347 | 16.11° C | 63% | 1018.7 hPa | 0 mm | - | 0 W/m² | - |
| 1777713044 | 16.11° C | 61% | 1018.9 hPa | 0 mm | - | 0 W/m² | - |
| 1777712741 | 16.11° C | 59% | 1018.7 hPa | 0 mm | - | 0 W/m² | - |
| 1777712438 | 16.11° C | 64% | 1018.6 hPa | 0 mm | - | 0 W/m² | - |
| 1777712134 | 16.11° C | 64% | 1018.4 hPa | 0 mm | - | 0 W/m² | - |
| 1777711832 | 16.11° C | 61% | 1018.2 hPa | 0 mm | - | 0 W/m² | - |
| 1777711529 | 16.11° C | 61% | 1018.3 hPa | 0 mm | - | 0 W/m² | - |
| 1777711229 | 16.11° C | 60% | 1018.4 hPa | 0 mm | - | 0 W/m² | - |
| 1777710926 | 16.67° C | 61% | 1018.3 hPa | 0 mm | - | 0 W/m² | - |
| 1777710623 | 16.67° C | 63% | 1018.1 hPa | 0 mm | - | 0 W/m² | - |
| 1777710320 | 16.67° C | 59% | 1018.1 hPa | 0 mm | - | 0 W/m² | - |
| 1777710017 | 16.67° C | 61% | 1018.1 hPa | 0 mm | - | 0 W/m² | - |
| 1777709715 | 16.67° C | 63% | 1017.6 hPa | 0 mm | - | 0 W/m² | - |
| 1777709411 | 16.67° C | 62% | 1017.6 hPa | 0 mm | - | 0 W/m² | - |
| 1777709109 | 16.67° C | 61% | 1017.5 hPa | 0 mm | - | 0 W/m² | - |
| 1777708807 | 16.67° C | 62% | 1017.4 hPa | 0 mm | - | 0 W/m² | - |
| 1777708503 | 16.67° C | 66% | 1017.4 hPa | 0 mm | - | 0 W/m² | - |
| 1777708202 | 16.67° C | 67% | 1017.1 hPa | 0 mm | - | 0 W/m² | - |
| 1777707899 | 16.67° C | 67% | 1017 hPa | 0 mm | - | 0 W/m² | - |
| 1777707595 | 17.22° C | 70% | 1016.9 hPa | 0 mm | - | 0 W/m² | - |
| 1777707291 | 17.22° C | 69% | 1016.9 hPa | 0 mm | - | 0 W/m² | - |
| 1777706989 | 17.22° C | 69% | 1016.5 hPa | 0 mm | - | 0 W/m² | - |
| 1777706686 | 17.22° C | 64% | 1016.7 hPa | 0 mm | - | 0 W/m² | - |
| 1777706384 | 17.22° C | 66% | 1016.8 hPa | 0 mm | - | 0 W/m² | - |
| 1777706081 | 17.22° C | 65% | 1016.8 hPa | 0 mm | - | 0 W/m² | - |
* Rain latest hour (hover to see other rain measurements)
** Current wind speed in m/s (hover to see current wind gust speed)